sat.trackr.live / text

‹ back to catalog

STARLINK-34874

NORAD 65335 · 2025-189N

PAYLOAD ACTIVE UNKNOWN

§ Identity

Operator
Country
US
Launch date
2025-08-27
Launch site
AFETR
Launch vehicle
Mass (kg)
RCS (m²)

Purposes: comms

External: N2YO · Heavens-Above · Gunter

§ Orbital elements

Epoch: 2026-05-25T04:20:03.850368Z

Period
94.10 min
Inclination
53.1588°
Eccentricity
0.0001278
Mean motion
15.30209952 rev/d
Perigee alt
474.3 km
Apogee alt
476.1 km
Semi-major
6,853.3 km
B*
4.7348e-4
RAAN
211.7443°
Arg perigee
85.2921°
Mean anomaly
274.8226°
Rev number
4,281

§ Raw data

STARLINK-348741 65335U 25189N   26145.18060012  .00013694  00000+0  47348-3 0  99942 65335  53.1588 211.7443 0001278  85.2921 274.8226 15.30209952 42813

JSON: /api/v1/satellites/65335 · /tle

For live sub-satellite position, see the globe view (requires WebGL).

§ Visibility from observer

Set your observer location to see the next 7 days of passes ≥ 10°. The values pass through the URL so the page stays shareable.

No JS? Fill the form by hand. The geolocation button needs JavaScript.